SES-11 (ECHOSTAR 105) (42967 NORAD) Tracking and Keplerian Element Data

This shows tracking and keplerian element data for the satellite.

Feedback or suggestion? Click here.




ElementValue
Catalog42967
NameSES-11 (ECHOSTAR 105)
Epoch Orbit2292
Epoch Day13.11826326
Epoch Year2024
RAAN48.6875
Inclination0.0093
Eccentricity0.0002779
Argument of Perigee243.0677
Mean Anonmoly117.9555
Mean Motion1.00270779
Decay Rate-8.1E-07
L11 42967U 17063A 24013.11826326 -.00000081 00000+0 00000+0 0 9992
L22 42967 0.0093 48.6875 0002779 243.0677 117.9555 1.00270779 22925



Live tracking and technical data element details for SES-11 (ECHOSTAR 105) (NORAD 42967). SES-11 (ECHOSTAR 105) can be tracked NOW for your location showing map with azimuth and elevation plus other details from your city location.







IsCatalogInMostPopularTable: catalog: 42967, numindb: 758
Update: records affected: 1



GetName: 42967 SES-11 (ECHOSTAR 105)

Hit Count: updated at: Fri, 19 Apr 2024 12:40:28 GMT